Location: Moscow
(55.7500°N, 37.5830°E)
Time: 05:10:15
(UTC+03:00)

FENGYUN 1C DEB - Pass Details

Date: 06 July 2022
Orbit: 583 x 834 km, 98.9° (Epoch: 14 August)

Event Time Altitude Azimuth Distance (km) Brightness Sun altitude
Exits shadow 22:02:54 - 179° (S) 3,206 ? -5.3°
Reaches altitude 10° 22:05:10 10° 184° (S) 2,319 ? -5.5°
Maximum altitude 22:10:07 48° 259° (W) 965 ? -5.8°
Drops below altitude 10° 22:14:45 10° 334° (NNW) 2,181 ? -6.2°
Sets 22:17:01 0° 340° (NNW) 3,063 ? -6.4°
